#timestamp,LO_Frequency,Hit,StdDev 
1595163615.4,286046998.4,N
1595163635.3,286047000.9,N
1595163655.1,286046998.5,N
1595163656.0,286046998.5,N
1595163675.8,286046998.6,N
1595163695.7,286046998.1,N
1595163715.5,286047000.1,N
1595163735.4,286047007.2,Y
1595163755.2,286047008.2,P
1595163775.0,286047009.1,N
1595163775.9,286047009.1,N
1595163795.8,286047007.6,N
1595163815.6,286047003.0,N
1595163835.4,286047002.9,N
1595163855.3,286047003.5,N
1595163875.1,286047003.1,N
1595163895.9,286047003.0,N
1595163915.7,286047003.3,N
1595163935.5,286047003.1,N
1595163955.4,286047006.0,N
1595163975.2,286047002.9,N
1595163995.0,286047003.8,N
1595163996.0,286047003.8,N
1595164015.8,286047004.0,N
1595164035.6,286047004.3,N
1595164055.5,286047001.8,N
1595164075.3,286047003.6,N
1595164095.1,286047004.1,N
1595164115.9,286047001.4,N
1595164135.7,286047004.3,N
1595164155.6,286047002.9,N
1595164175.4,286047005.1,N
1595164195.2,286047005.2,N
1595164215.1,286047007.5,Y
1595164216.0,286047007.5,P
1595164235.8,286047002.0,N
1595164255.7,286047001.9,N
1595164275.5,286047001.9,N
1595164295.3,286047001.8,N
1595164315.2,286047004.3,N
1595164335.9,286047001.3,N
1595164355.7,286047002.6,N
1595164375.6,286047001.4,N
1595164395.4,286047004.0,N
1595164415.3,286047003.8,N
1595164435.1,286047004.0,N
1595164436.0,286047004.0,N
1595164455.8,286046999.9,N
1595164475.7,286047000.4,N
1595164495.5,286046998.5,N
1595164515.3,286046998.5,N
1595164535.2,286046999.4,N
1595164555.0,286046999.3,N
1595164555.9,286046999.3,N
1595164575.8,286046999.2,N
1595164595.6,286046996.9,N
1595164615.4,286046997.6,N
1595164635.3,286046997.8,N
1595164655.1,286046996.1,N
1595164675.9,286046994.9,N
1595164695.7,286046995.1,N
1595164715.5,286046996.0,N
1595164735.4,286046996.4,N
1595164755.2,286046994.0,N
1595164775.0,286046993.6,N
1595164775.9,286046993.6,N
1595164795.8,286046993.8,N
1595164815.6,286046994.1,N
1595164835.5,286046993.6,N
1595164855.3,286046994.1,N
1595164875.1,286046993.8,N
1595164895.9,286046993.7,N
1595164915.7,286046994.1,N
1595164935.5,286046994.0,N
1595164955.4,286046994.4,N
1595164975.2,286046994.2,N
1595164995.1,286046994.5,N
1595164996.0,286046994.5,N
1595165015.8,286046993.6,N
1595165035.6,286046994.7,N
1595165055.5,286046992.1,Y
1595165075.3,286046997.7,P
1595165095.2,286046995.4,P
1595165115.9,286046996.7,P
1595165135.7,286046996.5,Y
1595165155.6,286047002.0,P
1595165175.4,286047002.1,N
1595165195.3,286047001.3,N
1595165215.1,286047003.7,N
1595165216.0,286047003.7,N
1595165235.8,286047003.7,N
1595165255.7,286047001.8,N
1595165275.5,286047004.4,N
1595165295.3,286047003.3,N
1595165315.2,286047003.0,N
1595165335.0,286047005.5,N
1595165335.9,286047005.5,N
1595165355.8,286047005.4,N
1595165375.6,286047003.3,N
1595165395.4,286047003.9,N
1595165415.3,286047001.7,N
1595165435.1,286047004.2,N
1595165455.9,286047004.3,N
1595165475.7,286047003.0,N
1595165495.5,286047003.3,N
1595165515.4,286047003.4,N
1595165535.2,286047003.3,N
1595165555.1,286047003.3,N
1595165556.0,286047003.3,N
1595165575.8,286047005.6,Y
1595165595.6,286047002.4,P
1595165615.5,286046999.7,N
1595165635.3,286046999.9,N
1595165655.2,286047000.1,N
1595165675.9,286047000.3,N
1595165695.7,286047000.9,N
1595165715.6,286046999.7,N
1595165735.4,286047000.2,N
1595165755.2,286047000.2,N
1595165775.1,286047000.4,N
1595165776.0,286047000.4,N
1595165795.8,286047000.1,N
1595165815.7,286047001.5,N
1595165835.5,286047001.8,N
1595165855.3,286047004.3,Y
1595165875.2,286047002.1,P
1595165895.0,286047002.7,P
1595165895.9,286047002.7,P
1595165915.8,286046999.8,N
1595165935.6,286047002.8,N
1595165955.4,286047002.4,N
1595165975.3,286047002.2,N
1595165995.1,286047002.1,N
1595166015.9,286047004.4,Y
1595166035.7,286047001.9,P
1595166055.5,286047001.9,P
1595166075.4,286047001.9,P
1595166095.2,286047002.6,Y
1595166115.0,286047000.4,P
1595166115.9,286047000.4,N
1595166135.8,286046998.5,N
1595166155.6,286046999.2,N
1595166175.5,286046998.4,N
1595166195.3,286046998.9,N
1595166215.1,286047001.1,N
1595166235.9,286047000.7,N
1595166255.7,286047000.6,N
1595166275.6,286047000.6,N
1595166295.4,286047000.4,N
1595166315.3,286047001.2,N
1595166335.1,286047000.3,N
1595166355.8,286046998.1,N
1595166375.7,286047000.6,N
1595166395.5,286046998.7,N
1595166415.4,286046998.3,N
1595166435.2,286047001.2,N
1595166455.0,286047000.0,N
1595166455.9,286047000.0,N
1595166475.8,286046999.9,N
1595166495.6,286046999.8,N
1595166515.5,286046999.8,N
1595166535.3,286047002.6,N
1595166555.1,286047002.2,N
1595166575.9,286047002.4,N
1595166595.7,286047002.3,N
1595166615.5,286047002.3,N
1595166635.4,286047002.3,N
1595166655.2,286047001.6,N
1595166675.1,286047001.7,N
1595166676.0,286047001.7,N
1595166695.8,286047002.4,N
1595166715.6,286047002.5,N
1595166735.5,286047002.8,N
1595166755.3,286047002.3,N
1595166775.1,286047002.0,N
1595166795.9,286047002.1,N
1595166815.7,286047001.4,N
1595166835.6,286047001.9,N
1595166855.4,286047001.5,N
1595166875.2,286047001.6,N
1595166895.1,286047002.2,N
1595166896.0,286047002.2,N
1595166915.8,286047001.9,N
1595166935.7,286047003.9,Y
1595166955.5,286047002.5,P
1595166975.3,286047002.8,P
1595166995.2,286046999.7,N
1595167015.0,286047002.3,N
1595167015.9,286047002.3,N
1595167035.7,286047002.7,N
1595167055.6,286047000.3,N
1595167075.4,286047000.4,N
1595167095.3,286047000.0,N
1595167115.1,286047002.4,N
1595167135.8,286047000.2,N
1595167155.7,286046999.9,N
1595167175.5,286047002.8,N
1595167195.4,286047000.2,N
